Regional Weather Roundup
Issued by NWS

Home | Current Version | Previous Version | Graphics & Text | Print | Product List | Glossary On
Versions: 1 2 3 4 5 6 7 8 9 10 11 12 13 14 15 16 17 18 19 20 21 22 23 24 25 26 27 28 29 30 31 32 33 34 35 36 37 38 39 40 41 42 43 44 45 46 47 48 49 50
000
ASUS43 KMKX 070011
RWRWI

WISCONSIN REGIONAL WEATHER ROUNDUP
NATIONAL WEATHER SERVICE MILWAUKEE/SULLIVAN WI
700 PM CDT WED MAY 06 2015

NOTE: "FAIR" INDICATES FEW OR NO CLOUDS BELOW 12,000 FEET WITH NO
SIGNIFICANT WEATHER AND/OR OBSTRUCTIONS TO VISIBILITY.

WIZ001-002-006>008-014>016-023>028-070100-
NORTHWEST WISCONSIN

CITY           SKY/WX    TMP DP  RH WIND       PRES   REMARKS
SUPERIOR ARPT  CLOUDY    45  35  68 E12G20    29.95F
6HR MIN TEMP:  45; 6HR MAX TEMP:  49;

ASHLAND        PTSUNNY   54  45  71 N8        29.98F
6HR MIN TEMP:  54; 6HR MAX TEMP:  64;

HAYWARD        PTSUNNY   72  56  57 SE10      29.94F
6HR MIN TEMP:  63; 6HR MAX TEMP:  75; 6HR PCP: TRACE;

SIREN          CLOUDY    73  56  56 SE10G21   29.91S
6HR MIN TEMP:  64; 6HR MAX TEMP:  78;

CUMBERLAND     CLOUDY    70  55  60 SE12      29.94R
RICE LAKE      CLOUDY    73  56  54 SE10      29.95S
6HR MIN TEMP:  61; 6HR MAX TEMP:  75;

CHETEK         CLOUDY    73  59  62 E9        29.95R
6HR MIN TEMP:  63; 6HR MAX TEMP:  75;

LADYSMITH      PTSUNNY   71  59  64 E7        29.98F
6HR MIN TEMP:  64; 6HR MAX TEMP:  72; 6HR PCP:  0.02;

EAU CLAIRE     CLOUDY    75  55  49 SE12      29.93S
6HR MIN TEMP:  64; 6HR MAX TEMP:  78;

MENOMONIE      RAIN      72  58  60 SE8       29.93F
6HR MIN TEMP:  64; 6HR MAX TEMP:  77;

NEW RICHMOND   LGT RAIN  65  61  86 SE12G18   29.93F
6HR MIN TEMP:  64; 6HR MAX TEMP:  75; 6HR PCP:  0.06;

OSCEOLA        LGT RAIN  67  61  81 SE13      29.93F
6HR MIN TEMP:  63; 6HR MAX TEMP:  76;

$$

WIZ003>005-009-010-017-018-070100-
NORTH CENTRAL WISCONSIN

CITY           SKY/WX    TMP DP  RH WIND       PRES   REMARKS
MANITOWISH WTR MOSUNNY   68  58  70 SE10      30.02F
6HR MIN TEMP:  57; 6HR MAX TEMP:  69;

ARBOR VITAE    PTSUNNY   69  58  67 SE8       30.03F
6HR MIN TEMP:  59; 6HR MAX TEMP:  72;

WOODRUFF       PTSUNNY   69  58  67 SE8       30.03F
6HR MIN TEMP:  59; 6HR MAX TEMP:  72;

RHINELANDER    PTSUNNY   68  57  68 S8G18     30.05F
6HR MIN TEMP:  59; 6HR MAX TEMP:  70;

EAGLE RIVER    MOSUNNY   69  52  55 S6        30.04F
6HR MIN TEMP:  58; 6HR MAX TEMP:  70; 6HR PCP:  0.01;

LAND O LAKES   SUNNY     71  53  53 S7        30.05F
6HR MIN TEMP:  58; 6HR MAX TEMP:  73;

PHILLIPS       CLOUDY    67  58  72 SE7       30.01F
6HR MIN TEMP:  58; 6HR MAX TEMP:  68;

TOMAHAWK       PTSUNNY   66  57  73 SE3       30.04F
6HR MIN TEMP:  57; 6HR MAX TEMP:  67;

MEDFORD        PTSUNNY   70  58  65 SE12G18   30.01F
6HR MIN TEMP:  62; 6HR MAX TEMP:  72;

MERRILL        PTSUNNY   68  59  73 SE10G16   30.05S
$$

WIZ029-030-035-036-043>047-070100-
CENTRAL WISCONSIN

CITY           SKY/WX    TMP DP  RH WIND       PRES   REMARKS
WAUSAU         PTSUNNY   70  57  63 SE13      30.02F
6HR MIN TEMP:  65; 6HR MAX TEMP:  73;

MOSINEE        SUNNY     68  57  68 SE12G17   30.04F
MARSHFIELD     PTSUNNY   73  57  57 SE14      30.01F
6HR MIN TEMP:  67; 6HR MAX TEMP:  77;

STEVENS POINT  PTSUNNY   67  56  67 SE9       30.04F
6HR MIN TEMP:  66; 6HR MAX TEMP:  71;

WAUPACA        MOSUNNY   70  57  64 E8        30.06S
6HR MIN TEMP:  66; 6HR MAX TEMP:  73;

WAUTOMA        MOSUNNY   73  60  63 E8        30.04F
6HR MIN TEMP:  64; 6HR MAX TEMP:  75; 6HR PCP:  0.01;

WISC RAPIDS    PTSUNNY   72  57  59 SE8       30.03F
6HR MIN TEMP:  67; 6HR MAX TEMP:  77; 6HR PCP: TRACE;

CAMP DOUGLAS   PTSUNNY   73  63  68 SE8       29.99S
$$

WIZ011>013-019>022-031-037>040-048>050-070100-
NORTHEAST WISCONSIN

CITY           SKY/WX    TMP DP  RH WIND       PRES   REMARKS
ANTIGO         PTSUNNY   65  57  74 SE12      30.08S
SHAWANO        PTSUNNY   66  56  71 E8        30.08F
6HR MIN TEMP:  61; 6HR MAX TEMP:  73;

OCONTO         PTCLDY    60  53  79 E7        30.09F
6HR MIN TEMP:  57; 6HR MAX TEMP:  64; 6HR PCP:  0.03;

STURGEON BAY   PTCLDY    55  48  76 E6        30.13F
6HR MIN TEMP:  55; 6HR MAX TEMP:  61;

GREEN BAY      PTCLDY    68  57  68 SE7       30.08F
6HR MIN TEMP:  67; 6HR MAX TEMP:  71;

MANITOWOC        N/A    N/A N/A N/A MISG        N/A
APPLETON       PTCLDY    66  55  68 SE9       30.08F
CLINTONVILLE   MOSUNNY   66  55  68 SE5       30.07S
OSHKOSH        PTCLDY    68  59  73 E7        30.06F
6HR MIN TEMP:  60; 6HR MAX TEMP:  68; 6HR PCP:  0.27;

$$

WIZ032>034-041-042-053>061-070100-
SOUTHWEST WISCONSIN

CITY           SKY/WX    TMP DP  RH WIND       PRES   REMARKS
LA CROSSE      CLOUDY    78  58  49 SE15      29.92F
6HR MIN TEMP:  73; 6HR MAX TEMP:  82;

SPARTA         PTSUNNY   74  57  55 SE9       29.98S
6HR MIN TEMP:  70; 6HR MAX TEMP:  79;

VIROQUA        CLOUDY    73  58  59 SE13      29.97F
6HR MIN TEMP:  67; 6HR MAX TEMP:  76;

BOSCOBEL       CLOUDY    79  56  45 VRB5      29.96F HX  80
6HR MIN TEMP:  72; 6HR MAX TEMP:  81;

PRAIRIE DU CHI CLOUDY    68  58  69 CALM      29.98F
6HR MIN TEMP:  68; 6HR MAX TEMP:  80;

PLATTEVILLE    PTSUNNY   74  55  50 SE10      29.99S
6HR MIN TEMP:  71; 6HR MAX TEMP:  79;

$$

WIZ056-057-062-063-064-067-068-070100-
SOUTH CENTRAL WISCONSIN

CITY           SKY/WX    TMP DP  RH WIND       PRES   REMARKS
REEDSBURG      MOSUNNY   73  63  70 E7        30.00S
6HR MIN TEMP:  65; 6HR MAX TEMP:  74;

BARABOO/DELLS  MOSUNNY   72  61  67 E10       30.02S
LONE ROCK      MOSUNNY   76  60  57 SE10      29.98F
6HR MIN TEMP:  68; 6HR MAX TEMP:  78;

MINERAL POINT  MOSUNNY   75  52  43 SE10      30.00F
MADISON        PTSUNNY   74  62  66 SE14      30.02F
6HR MIN TEMP:  64; 6HR MAX TEMP:  77;

MIDDLETON      MOSUNNY   75  61  62 E12       30.02F
WATERTOWN      MOCLDY    68  58  71 E9        30.04F
6HR MIN TEMP:  66; 6HR MAX TEMP:  73;

MONROE         MOSUNNY   73  55  53 SE9       30.02S
JANESVILLE     PTCLDY    73  63  68 E12       30.03F
$$

WIZ051-052-058>065-066-070>072-070100-
SOUTHEAST WISCONSIN

CITY           SKY/WX    TMP DP  RH WIND       PRES   REMARKS
MILWAUKEE      CLOUDY    49  45  86 NE6       30.09F
6HR MIN TEMP:  50; 6HR MAX TEMP:  60;

WAUKESHA       MOCLDY    63  54  72 E8        30.09F
MILWAUKEE/TIMM CLEAR     59  50  72 E7        30.09F HAZE
RACINE         MOCLDY    51  47  86 NE6       30.10F
6HR MIN TEMP:  51; 6HR MAX TEMP:  61;

BURLINGTON     CLEAR     63  56  79 E7        30.08S HAZE
6HR MIN TEMP:  63; 6HR MAX TEMP:  67;

KENOSHA        PTCLDY    55  53  93 E7        30.08F
6HR MIN TEMP:  56; 6HR MAX TEMP:  61;

FOND DU LAC    MOCLDY    67  57  70 SE12      30.06F
6HR MIN TEMP:  60; 6HR MAX TEMP:  71; 6HR PCP: TRACE;

SHEBOYGAN      PTCLDY    55  50  83 E5        30.10F
6HR MIN TEMP:  54; 6HR MAX TEMP:  63; 6HR PCP: TRACE;

WEST BEND      MOCLDY    61  52  72 SE7       30.09S
JUNEAU         MOCLDY    66  57  73 E12       30.06F
6HR MIN TEMP:  59; 6HR MAX TEMP:  72;

$$

LSZ147-162-070100-
LAKE SUPERIOR

STATION/POSITION TIME  TEMP    WIND        PRES    WAVE
                       AIR SEA DIR/SP/G            HT/PER
                 (UTC) (F)     (DEG/KT/KT) (MB)    (FT/S)
W MID LAKE BUOY  2350   39 36   50/ 12/ 12 1016.5F   1
DEVILS ISLAND    0000   42      60/  8/  9 1016.1F
PORT WING        2300   42      30/ 16/ 18 1015.2F
SAXON HARBOR     2300   48        CALM     1015.2F
$$

LMZ867-665-643>646-070100-
LAKE MICHIGAN

STATION/POSITION TIME  TEMP    WIND        PRES    WAVE
                       AIR SEA DIR/SP/G            HT/PER
                 (UTC) (F)     (DEG/KT/KT) (MB)    (FT/S)
CHAMBERS ISLAND  2300   56      80/  4/  6 1019.6F
NORTHPORT PIER   2300   48     140/  4/  5 1020.3F
SISTER BAY       2332   57     140/  9/ 14   N/A
KEWAUNEE LAKESHO 2300   45      90/  3/  5 1019.5F
SHEBOYGAN LAKESH 0000   43      60/  5/  5 1020.2F


USA.gov is the U.S. government's official web portal to all federal, state and local government web resources and services.